Vorticity
3 2 3 2 3 4 5 6 5 5 5 5 6 3 4 5 5 8 7 9 8 7 15 9 9 26 25 22 18 8 11 13 11 9 7 7 5 7 8 7 6 4 4 5 5 7 5 6 6 7 9 11 13 12 12 16 18 17 16 16 18 18 17 16 15 14 12 11 12 12 12 13 13 13 12 9 5 3 4 3 2 2 3 5 6 5
4 3 3 1 2 4 4 5 5 6 5 5 5 3 5 5 4 4 5 10 6 6 16 6 12 32 26 18 15 11 15 12 11 10 7 9 8 7 7 6 7 7 8 8 6 7 6 7 8 7 7 8 11 13 14 16 13 10 12 15 16 13 14 17 18 19 20 20 20 19 19 21 21 22 23 22 18 14 13 10 8 7 6 5 4 2
2 2 3 2 3 4 5 6 5 7 7 6 6 5 6 8 8 3 -1 8 9 9 14 5 14 30 22 18 16 12 16 13 9 11 9 10 9 8 8 7 9 9 10 11 10 10 8 7 8 10 15 17 19 20 18 15 11 11 15 16 12 9 8 11 13 15 15 13 10 9 9 9 9 10 13 17 18 18 16 14 12 12 10 8 8 7
2 3 5 4 4 5 6 7 5 6 7 8 8 6 6 8 13 12 6 9 11 11 11 4 15 28 21 20 18 12 12 12 12 14 12 11 9 10 11 10 11 12 11 12 10 10 12 17 23 26 25 23 20 17 14 10 8 9 9 5 3 5 5 3 4 5 5 4 2 1 1 2 3 2 4 6 7 7 7 10 10 11 11 11 11 10
4 5 6 6 5 5 7 7 7 7 5 6 6 6 7 7 10 12 11 11 10 14 11 2 9 24 27 20 13 10 10 13 17 15 11 12 14 14 13 14 12 11 10 10 13 19 26 30 29 23 16 12 9 7 5 2 3 7 6 -0 -3 1 4 3 1 -1 -0 3 6 7 5 4 3 3 4 4 3 3 4 9 12 14 12 8 6 5
5 5 6 6 5 6 8 7 8 7 4 3 3 6 7 9 11 10 11 11 13 18 13 5 5 14 31 24 6 8 14 15 15 13 17 17 15 14 12 13 11 11 15 20 28 30 27 20 10 8 7 4 4 5 1 -4 -1 4 5 1 -3 1 4 3 3 1 2 4 6 8 6 3 2 2 4 4 5 6 4 4 6 9 6 -3 -5 -2
5 6 6 7 5 6 8 6 6 5 4 5 5 7 6 7 10 9 11 9 12 18 10 11 9 5 25 23 5 12 14 13 16 15 18 14 13 16 13 13 15 22 30 30 27 18 9 6 3 5 5 2 6 7 0 -2 5 5 4 5 3 4 3 0 1 2 3 4 4 6 4 4 6 6 4 2 3 5 3 2 2 3 2 -4 -6 -2
5 7 7 6 4 4 5 3 3 4 6 6 5 7 5 5 9 10 12 5 6 16 10 13 13 6 24 19 2 14 12 10 18 13 13 17 15 13 11 21 31 32 28 16 5 -1 -1 4 5 6 6 10 16 9 -2 -1 7 5 1 5 5 2 1 0 1 -0 3 7 7 7 3 -0 -1 -5 -7 -7 -5 -1 0 2 2 -0 0 -1 -2 -1
7 7 5 3 3 4 4 3 3 4 6 6 5 5 2 3 6 4 5 1 5 17 12 17 17 3 20 23 5 12 13 9 14 13 16 14 9 18 30 38 32 14 -0 -5 -4 -4 -3 2 3 4 4 5 9 3 -2 1 6 4 2 6 6 2 -1 -2 -3 -5 -3 -0 -3 -6 -8 -8 -7 -8 -4 -1 2 5 6 6 6 5 5 5 6 9
5 5 4 3 4 4 4 3 3 4 4 5 2 1 -0 1 2 0 2 3 11 23 13 16 22 -2 2 20 11 10 13 12 13 13 12 12 21 36 31 14 4 -1 -1 6 13 9 7 9 9 10 8 5 5 4 1 0 -1 -2 -4 -2 -2 -4 -4 -3 -1 2 3 5 6 8 12 17 21 24 28 30 31 33 34 36 37 37 38 38 38 39
3 4 5 4 4 4 4 2 3 3 3 5 4 2 1 -3 -4 -1 4 4 14 31 17 11 25 7 -7 10 14 12 14 11 11 11 14 24 32 23 7 5 15 20 17 12 10 5 2 0 -2 -0 1 -1 -1 -1 -0 0 2 6 10 15 18 20 25 28 29 31 32 34 34 35 36 36 37 38 38 38 38 38 38 38 38 37 37 38 37 36
5 6 5 4 5 4 3 1 2 3 2 4 5 7 7 4 2 2 6 7 13 28 18 7 22 15 -1 8 12 11 13 11 13 15 19 26 22 13 13 15 9 0 -5 -9 -8 -4 -2 1 5 10 14 17 19 23 27 29 30 32 33 33 33 33 32 31 29 27 26 25 24 23 23 23 23 23 22 21 20 20 20 19 20 20 20 20 19 18
6 6 5 6 7 6 3 1 1 1 2 6 6 9 15 16 16 14 11 9 11 25 21 10 16 12 5 13 10 7 12 14 15 14 21 27 18 11 4 -8 -12 -6 1 7 12 19 23 25 28 30 31 30 30 29 27 26 25 23 21 19 17 16 13 11 10 10 9 9 8 8 8 9 10 10 10 11 12 13 13 13 13 12 13 14 14 15
6 7 7 8 8 7 6 5 6 5 6 11 9 12 17 11 7 9 7 2 6 21 22 17 18 8 5 13 10 10 14 14 16 15 22 25 8 -3 -3 -1 11 19 20 25 29 30 30 30 29 27 24 21 18 15 11 10 9 9 9 8 7 7 7 8 10 11 12 13 14 17 19 21 23 23 24 25 25 25 24 24 25 27 28 31 34 36
8 10 10 9 8 7 6 5 7 6 7 9 6 9 12 6 5 9 7 -1 1 14 17 18 23 8 1 10 9 12 17 13 15 18 18 16 6 7 16 20 23 24 27 30 29 27 25 23 20 17 16 15 14 15 14 14 15 15 18 18 20 23 24 25 26 27 29 30 33 34 35 37 38 41 43 42 41 41 42 43 44 46 46 46 46 44
9 11 10 9 7 6 5 4 6 5 5 7 5 6 6 3 7 9 8 2 0 12 17 17 22 8 -1 11 12 11 17 16 16 16 15 15 15 20 22 23 26 27 28 26 21 20 16 14 15 16 18 22 24 27 28 29 30 30 32 32 33 33 32 32 32 31 32 31 31 30 30 32 34 38 41 41 42 42 42 41 40 40 40 38 35 33
12 11 8 8 6 4 5 5 6 5 4 7 5 4 6 6 7 3 3 6 5 12 20 21 19 6 -2 8 12 14 17 16 17 15 15 17 18 20 21 24 26 23 21 19 16 15 16 20 25 27 30 30 29 30 28 28 29 29 30 29 28 28 27 27 26 24 23 21 21 24 27 31 33 35 36 35 35 33 30 29 30 29 28 28 28 30
12 12 7 8 7 4 5 5 6 4 5 6 5 5 6 7 13 9 -0 3 3 -2 10 32 28 5 1 7 7 16 18 13 15 15 15 18 17 19 23 24 24 21 19 16 14 20 26 29 29 27 27 26 24 25 25 26 27 28 28 26 26 27 24 21 20 19 21 23 28 34 36 37 35 32 29 27 26 25 24 25 25 25 28 31 34 34
10 12 8 8 8 4 4 5 5 3 3 4 5 8 8 5 13 17 3 0 7 -9 -14 25 38 7 1 10 7 16 18 9 12 13 13 19 18 20 25 24 23 18 15 17 22 28 28 25 23 22 22 23 24 26 27 28 28 27 26 23 22 21 18 18 20 22 26 30 34 36 33 31 27 25 24 24 23 23 23 25 28 31 33 32 28 23
7 11 9 8 7 3 3 4 2 0 1 5 5 6 10 8 9 16 11 3 13 6 -21 -1 31 15 0 10 12 13 17 13 12 10 12 21 23 25 26 23 19 15 17 24 27 28 26 24 24 22 22 23 24 26 25 24 25 26 23 20 18 18 17 20 22 24 27 29 28 26 24 23 24 24 23 21 21 24 28 31 31 27 21 16 12 11
6 9 8 8 6 3 4 4 2 1 2 7 8 5 7 9 6 11 19 12 13 19 -4 -15 13 19 4 9 13 11 15 18 14 12 16 23 25 27 26 19 15 17 22 27 28 27 27 25 24 22 22 24 24 24 23 21 22 22 20 19 19 20 22 22 24 25 26 24 23 23 23 24 24 22 21 24 28 31 29 23 17 12 10 11 11 12
6 6 8 9 7 5 4 2 2 3 4 6 8 7 5 7 5 2 11 18 15 19 10 -4 11 20 6 6 11 9 14 17 14 15 21 24 21 22 24 17 14 20 26 28 27 25 23 22 22 21 20 23 24 24 23 22 22 22 21 24 26 26 24 23 24 25 25 24 24 24 24 24 25 25 27 30 27 21 15 10 10 13 15 16 16 16
5 5 7 9 7 5 3 2 4 2 3 7 7 7 7 6 8 2 -1 10 14 13 7 3 18 23 8 7 11 8 11 14 14 17 21 24 23 22 21 17 19 27 27 25 23 21 21 22 22 21 21 24 27 26 24 24 25 25 25 27 28 28 26 24 25 26 26 24 23 24 27 28 29 28 24 19 13 10 11 14 17 18 19 18 17 18
6 5 5 8 6 4 3 2 4 2 2 7 7 8 8 5 8 8 3 5 11 14 3 -6 13 25 12 11 14 7 10 13 15 20 20 20 23 23 20 18 23 29 24 21 21 18 18 21 23 25 24 25 28 28 27 28 28 27 26 27 28 28 27 24 24 26 25 26 27 28 28 26 20 16 13 11 12 15 17 18 18 18 18 17 15 15
7 5 5 9 7 7 7 4 2 3 3 5 7 7 7 5 6 6 6 8 10 19 10 -13 -1 21 15 13 15 8 8 13 18 23 23 20 22 23 19 19 26 29 21 17 18 15 16 19 20 22 22 24 27 25 26 29 27 25 25 25 26 27 26 26 28 31 31 29 27 23 18 14 12 12 14 16 17 17 15 15 17 16 15 13 12 12
7 7 5 9 10 8 8 6 2 2 3 3 6 7 3 4 7 3 6 10 6 19 23 -6 -14 8 14 13 14 8 6 12 17 20 22 23 25 24 20 20 28 29 18 16 17 13 14 15 14 17 20 23 26 24 26 30 29 29 30 29 31 33 32 33 32 29 24 18 14 12 11 12 14 15 16 17 16 14 13 14 15 14 12 12 11 10
6 8 6 6 8 6 5 6 2 -0 3 3 3 5 5 3 6 4 8 11 2 10 30 17 -4 1 10 11 10 6 5 12 16 17 18 22 25 25 24 24 32 32 19 15 16 11 11 14 13 14 16 19 24 24 25 29 30 33 33 31 31 29 25 23 19 13 11 10 10 12 14 14 15 14 15 15 14 12 12 13 14 14 12 11 11 10
6 7 7 5 6 6 5 6 3 -1 1 4 2 4 6 3 5 6 6 10 6 2 13 18 9 3 6 12 12 5 3 9 15 16 16 20 24 26 26 26 35 38 22 13 15 11 9 12 12 11 13 15 18 18 19 21 22 21 20 19 17 15 13 11 10 9 10 11 11 13 14 14 12 12 13 13 12 12 13 14 13 13 13 12 11 10
7 7 6 6 5 6 6 5 3 0 0 4 3 3 5 4 3 5 3 8 14 8 0 6 12 6 3 8 13 11 4 5 14 16 13 18 24 26 26 25 31 40 29 13 12 11 8 11 13 12 13 13 13 13 12 12 13 11 10 9 9 9 10 10 10 10 9 10 10 10 12 13 11 10 11 11 11 11 12 13 13 14 15 14 12 11
8 7 6 6 5 5 6 5 3 1 1 3 3 2 5 6 3 2 4 8 15 14 6 5 10 10 6 7 13 13 4 1 11 18 15 17 21 23 26 25 27 40 37 17 9 12 9 9 13 12 12 13 12 11 9 8 10 10 9 9 10 9 9 9 9 8 8 9 9 9 9 11 10 9 10 11 12 11 10 11 13 14 15 15 12 11
8 8 6 6 5 5 6 6 4 1 1 3 3 2 4 5 2 1 5 8 9 11 13 10 8 8 8 10 15 13 4 0 7 14 17 20 21 20 24 25 24 36 43 25 9 11 10 7 11 13 12 13 13 11 11 10 10 11 11 10 10 9 8 9 9 10 9 9 9 8 7 8 9 9 10 11 12 12 11 11 12 12 14 14 12 11
8 9 7 6 6 5 5 6 4 1 0 3 4 4 3 4 6 4 4 6 4 5 11 11 9 9 7 9 15 14 7 4 5 8 13 19 22 21 24 27 23 28 42 36 15 9 11 9 9 12 12 12 14 12 12 11 10 11 12 11 11 11 11 12 11 11 10 9 10 9 8 7 8 8 9 11 12 13 13 12 12 11 12 13 13 12
8 8 7 7 7 5 6 7 4 -0 1 4 4 3 3 4 8 6 2 4 7 7 9 8 8 11 9 6 13 17 12 5 4 7 10 11 18 23 23 27 28 24 35 43 26 8 10 11 8 11 13 12 13 12 10 11 11 12 12 11 11 11 12 13 13 13 13 14 15 14 13 13 11 10 10 10 11 13 13 12 12 11 12 14 14 11
9 8 7 7 7 6 6 6 4 -0 1 3 3 3 3 3 8 8 1 1 6 8 9 9 7 11 11 6 8 18 17 7 4 10 11 9 14 20 21 27 31 25 28 45 40 16 8 11 10 9 12 12 13 13 11 10 10 11 12 12 11 12 14 13 13 15 16 16 15 14 14 14 14 14 14 12 12 13 12 11 12 13 14 15 13 11
8 8 8 7 7 7 6 7 7 3 2 2 2 3 3 2 6 10 5 0 2 3 6 9 8 10 13 8 5 14 18 10 7 10 11 12 14 17 20 25 30 25 22 37 48 31 11 9 10 8 10 12 12 13 13 12 10 10 10 11 12 13 15 14 13 15 14 12 13 15 17 18 18 17 17 16 15 13 11 11 14 15 14 13 13 13
8 7 7 7 7 7 6 8 8 4 1 2 2 2 2 2 3 7 8 4 1 1 3 8 8 8 10 8 6 12 16 13 11 10 9 13 17 19 21 24 25 25 21 27 43 41 20 9 9 8 7 9 11 12 13 13 12 10 9 10 11 12 15 15 13 13 13 11 14 18 21 24 25 22 22 21 19 16 13 11 12 14 14 14 14 13
8 7 7 7 8 7 6 6 5 2 2 3 3 1 2 2 2 5 8 6 1 2 4 7 8 5 6 7 4 7 14 14 12 11 9 11 17 22 26 24 21 23 23 23 35 43 31 14 8 8 6 7 9 10 12 13 13 12 10 10 9 9 12 15 13 12 12 11 14 19 21 23 27 28 27 25 22 19 15 11 12 13 13 13 14 14
7 7 7 7 7 7 7 6 6 5 4 4 4 3 2 2 2 3 7 6 3 4 4 4 7 5 4 6 2 -1 8 14 11 10 9 9 12 20 26 26 22 23 25 22 28 41 41 23 10 9 8 7 7 7 9 11 12 13 12 10 10 9 10 13 13 12 11 11 14 18 17 19 26 29 27 25 24 21 15 12 13 13 13 15 17 18
7 7 7 7 7 7 7 7 6 5 5 4 4 4 3 2 1 1 5 7 5 5 4 3 7 6 4 8 6 -3 -1 8 9 8 9 9 11 16 20 21 23 27 27 23 24 36 44 32 16 10 9 9 9 7 7 10 13 15 14 12 11 11 10 11 13 12 11 11 14 16 15 16 24 27 24 23 23 20 15 12 13 15 17 19 18 14
7 7 7 7 7 7 7 7 6 5 4 5 5 4 3 3 1 -0 2 6 6 5 5 4 5 6 5 7 10 5 -1 2 6 6 7 9 11 15 17 17 21 26 27 25 25 32 41 36 21 10 8 9 7 5 11 18 18 16 16 15 13 12 11 11 11 13 12 11 13 16 14 14 21 24 23 22 21 18 14 13 16 17 17 14 10 8
6 7 7 6 7 7 7 7 7 5 4 4 5 6 4 3 2 2 1 3 6 6 6 4 4 6 7 6 8 10 7 5 6 5 5 8 10 12 16 18 21 24 25 26 27 31 40 39 24 11 8 6 4 11 22 27 25 21 19 17 14 12 12 11 10 12 13 11 13 16 14 14 19 22 22 21 19 16 15 16 17 15 11 8 7 7
6 6 6 7 6 7 7 7 6 6 5 5 5 6 5 3 3 4 2 1 4 6 6 4 3 4 7 8 8 10 9 8 8 6 5 8 9 9 13 17 21 24 25 27 27 30 40 42 28 15 8 5 10 22 26 23 23 26 24 20 16 12 11 10 9 11 13 12 13 16 15 15 17 18 19 20 17 16 16 15 13 9 6 7 7 6
5 5 6 7 7 7 7 6 6 7 6 6 5 5 6 5 4 4 3 1 2 4 5 4 3 3 5 6 8 10 9 8 9 8 6 7 9 9 11 13 18 22 26 28 27 29 39 43 32 16 8 9 18 26 21 16 21 25 24 23 22 15 10 9 9 11 13 11 12 17 17 17 17 16 16 18 17 16 15 11 7 7 7 7 6 5
5 5 6 7 7 7 7 6 6 7 6 6 6 5 5 6 5 4 4 3 2 3 4 4 3 3 4 4 6 9 9 7 7 8 6 6 8 9 10 11 15 20 24 27 28 30 37 45 38 18 6 13 21 20 17 18 22 21 19 21 23 21 19 17 12 11 13 11 12 17 18 17 18 17 15 17 17 14 11 8 6 6 7 6 4 3
5 4 5 6 7 7 7 6 5 6 7 6 6 6 5 5 6 5 4 4 3 2 3 4 3 3 4 4 5 8 8 7 7 8 7 5 6 8 10 11 13 16 21 25 29 31 36 45 43 21 7 14 19 14 16 22 22 20 20 21 21 22 24 24 20 15 14 12 11 17 19 18 19 19 17 17 15 10 8 7 6 6 6 3 3 5
5 5 4 5 7 7 6 6 6 6 7 7 7 7 6 5 5 6 6 5 4 2 2 3 3 4 4 4 5 6 7 7 8 9 8 5 4 6 9 11 12 14 17 22 27 30 35 45 47 28 11 14 16 12 16 23 22 20 20 18 18 21 23 25 25 20 16 12 11 17 21 19 19 19 16 13 11 8 7 6 5 5 5 4 6 8
6 6 4 5 7 8 7 6 6 6 6 7 7 8 7 6 5 5 6 5 5 4 3 2 3 4 4 4 5 4 5 6 7 9 8 5 4 6 8 10 12 13 15 18 24 29 32 42 51 38 17 13 14 11 16 24 23 17 13 13 17 23 25 26 26 23 18 13 12 18 23 20 18 17 14 10 8 6 5 5 4 4 6 9 10 11
7 6 5 5 6 8 7 5 5 5 6 7 7 8 8 7 6 6 5 5 5 6 4 2 2 3 3 4 4 3 5 6 7 9 9 6 4 5 7 9 11 12 14 16 21 27 30 37 49 45 26 15 12 11 16 25 23 13 9 13 21 29 33 31 27 24 20 14 12 19 23 19 16 16 12 8 6 5 3 4 5 6 8 10 10 9
7 7 6 6 6 7 8 7 5 4 5 5 7 8 8 8 8 7 6 5 5 6 6 4 2 2 2 4 3 3 5 6 6 7 8 6 4 4 5 8 9 10 13 15 18 24 28 33 45 49 36 20 12 10 15 25 23 12 8 13 20 28 34 33 28 23 19 14 14 21 23 19 16 14 11 6 5 4 3 4 6 8 9 9 9 10
7 7 6 6 7 7 7 7 6 5 4 5 6 7 7 8 9 8 7 6 5 5 6 5 4 2 2 3 3 3 5 6 6 7 8 7 5 3 4 7 8 9 11 13 16 21 25 30 41 50 43 28 15 10 13 23 24 13 7 12 19 25 30 32 30 27 22 17 17 22 23 20 16 12 9 6 5 4 3 5 7 8 8 8 8 9
7 8 7 6 7 7 6 6 6 5 5 5 6 7 7 8 9 9 8 8 6 5 5 6 6 4 2 2 3 4 4 5 6 7 7 8 6 4 3 5 7 8 10 12 14 18 22 26 37 49 50 38 22 12 11 21 25 16 7 9 16 21 25 28 28 28 25 21 20 23 23 20 16 12 8 6 5 4 4 5 5 5 5 4 3 3
Height
5788 5785 5782 5778 5775 5772 5768 5765 5761 5757 5753 5749 5745 5742 5737 5732 5730 5726 5720 5717 5710 5704 5699 5693 5689 5684 5676 5671 5666 5658 5652 5644 5636 5628 5619 5612 5606 5600 5594 5588 5583 5577 5572 5567 5563 5558 5554 5549 5545 5540 5537 5533 5530 5527 5524 5521 5518 5514 5511 5508 5504 5501 5499 5496 5493 5490 5488 5486 5484 5482 5481 5479 5478 5476 5475 5474 5473 5472 5472 5472 5472 5472 5473 5473 5473 5474
5786 5783 5780 5776 5773 5769 5766 5763 5759 5755 5751 5747 5743 5739 5736 5730 5726 5722 5716 5713 5708 5700 5695 5688 5684 5680 5671 5665 5659 5652 5644 5637 5629 5620 5612 5606 5599 5593 5587 5580 5575 5570 5565 5559 5554 5549 5544 5539 5534 5529 5525 5521 5518 5514 5511 5507 5504 5501 5497 5494 5491 5489 5486 5483 5480 5478 5475 5472 5469 5468 5466 5464 5463 5462 5460 5459 5459 5458 5457 5458 5457 5457 5457 5457 5457 5458
5785 5782 5778 5775 5771 5768 5764 5761 5758 5754 5749 5745 5741 5736 5732 5727 5722 5719 5713 5708 5702 5693 5687 5682 5678 5675 5667 5660 5653 5645 5638 5629 5621 5613 5606 5600 5593 5586 5580 5573 5567 5562 5556 5551 5545 5540 5534 5529 5524 5518 5514 5510 5506 5502 5498 5495 5492 5488 5484 5481 5479 5476 5472 5469 5466 5464 5461 5458 5455 5452 5450 5448 5447 5447 5445 5445 5445 5444 5444 5444 5443 5442 5442 5441 5441 5441
5784 5780 5777 5773 5770 5766 5762 5759 5755 5752 5747 5741 5737 5732 5728 5722 5716 5712 5707 5702 5696 5687 5680 5675 5672 5669 5662 5655 5647 5638 5631 5623 5614 5607 5600 5593 5586 5579 5573 5566 5560 5553 5547 5541 5535 5529 5524 5518 5513 5508 5504 5500 5495 5491 5487 5484 5480 5476 5472 5469 5466 5462 5459 5456 5452 5449 5447 5444 5441 5438 5435 5434 5432 5431 5431 5430 5430 5430 5430 5431 5430 5429 5428 5426 5426 5426
5782 5779 5775 5771 5768 5764 5760 5756 5752 5749 5745 5740 5735 5729 5724 5719 5713 5706 5700 5697 5693 5685 5675 5667 5665 5664 5656 5647 5641 5632 5623 5615 5607 5600 5593 5586 5579 5572 5565 5558 5550 5543 5537 5530 5524 5518 5513 5508 5503 5499 5494 5490 5485 5481 5477 5473 5468 5464 5460 5456 5453 5450 5447 5443 5439 5436 5433 5430 5427 5423 5421 5419 5417 5416 5416 5415 5414 5415 5415 5415 5415 5415 5413 5412 5412 5412
5781 5777 5773 5769 5766 5762 5757 5753 5749 5745 5742 5737 5732 5726 5720 5715 5710 5703 5696 5690 5684 5678 5670 5659 5652 5653 5650 5640 5632 5625 5616 5608 5600 5593 5586 5578 5571 5563 5555 5548 5540 5533 5526 5519 5513 5508 5503 5498 5494 5490 5485 5480 5476 5470 5466 5462 5457 5452 5448 5444 5441 5438 5434 5430 5426 5422 5419 5416 5412 5409 5406 5404 5402 5401 5401 5400 5398 5399 5400 5400 5400 5400 5399 5397 5397 5397
5779 5775 5771 5768 5763 5759 5755 5751 5746 5742 5738 5733 5728 5722 5716 5710 5704 5698 5691 5683 5676 5669 5662 5654 5644 5641 5642 5635 5626 5617 5608 5600 5592 5584 5577 5570 5562 5554 5546 5538 5530 5523 5516 5510 5505 5500 5495 5491 5486 5481 5476 5471 5465 5460 5455 5450 5445 5440 5436 5433 5429 5426 5421 5416 5412 5408 5405 5401 5397 5393 5389 5387 5385 5385 5386 5385 5383 5384 5385 5385 5384 5384 5384 5383 5382 5382
5777 5773 5769 5766 5761 5757 5753 5749 5744 5739 5734 5729 5724 5718 5712 5706 5699 5693 5687 5680 5673 5666 5659 5653 5643 5634 5631 5626 5617 5608 5599 5590 5583 5575 5567 5560 5551 5544 5536 5528 5521 5514 5509 5503 5499 5494 5489 5484 5478 5472 5467 5461 5455 5450 5445 5440 5435 5430 5425 5422 5419 5414 5409 5404 5399 5394 5389 5385 5380 5376 5372 5369 5368 5367 5368 5369 5368 5369 5370 5370 5370 5369 5368 5368 5366 5366
5775 5772 5768 5764 5760 5755 5750 5745 5741 5736 5731 5725 5720 5714 5707 5701 5694 5688 5683 5678 5671 5664 5656 5650 5641 5630 5623 5617 5607 5598 5590 5580 5572 5565 5557 5549 5541 5533 5526 5519 5513 5508 5503 5498 5493 5488 5482 5476 5469 5463 5457 5452 5446 5440 5434 5428 5423 5418 5414 5410 5406 5401 5396 5390 5384 5378 5373 5368 5363 5358 5355 5352 5351 5350 5349 5349 5350 5351 5352 5353 5354 5353 5353 5353 5351 5350
5773 5770 5766 5762 5758 5753 5747 5742 5737 5732 5727 5722 5717 5711 5705 5699 5693 5686 5681 5677 5671 5661 5651 5642 5633 5621 5612 5607 5598 5589 5580 5571 5562 5554 5546 5539 5530 5523 5517 5511 5506 5501 5496 5491 5485 5479 5472 5465 5459 5453 5447 5442 5436 5429 5422 5416 5410 5405 5401 5396 5391 5387 5381 5374 5368 5362 5357 5352 5346 5342 5339 5336 5334 5334 5333 5332 5331 5333 5334 5334 5335 5334 5335 5336 5336 5334
5770 5767 5763 5759 5755 5750 5746 5740 5734 5729 5723 5719 5713 5709 5705 5700 5695 5687 5678 5673 5667 5655 5641 5630 5621 5610 5600 5595 5589 5579 5570 5561 5552 5545 5537 5529 5521 5514 5509 5504 5499 5493 5488 5482 5475 5469 5462 5455 5449 5442 5436 5430 5424 5418 5411 5404 5397 5390 5385 5380 5374 5370 5364 5358 5351 5345 5340 5336 5331 5327 5323 5321 5320 5319 5317 5316 5316 5317 5317 5316 5317 5317 5317 5319 5319 5318
5768 5764 5760 5756 5752 5747 5744 5738 5732 5726 5720 5714 5708 5703 5700 5696 5692 5684 5673 5663 5654 5643 5631 5621 5615 5607 5597 5587 5579 5570 5562 5554 5546 5537 5529 5520 5513 5508 5502 5497 5492 5486 5479 5473 5466 5459 5452 5445 5438 5432 5425 5418 5411 5405 5397 5389 5381 5374 5368 5363 5357 5353 5348 5342 5336 5330 5326 5322 5317 5312 5309 5308 5306 5304 5302 5302 5301 5302 5301 5301 5301 5301 5302 5303 5303 5303
5766 5763 5758 5754 5750 5745 5741 5737 5731 5725 5718 5711 5705 5697 5689 5682 5675 5667 5658 5650 5644 5638 5629 5618 5610 5603 5593 5583 5573 5564 5556 5547 5538 5529 5520 5512 5506 5501 5496 5491 5484 5477 5469 5461 5453 5445 5438 5431 5424 5416 5409 5403 5396 5388 5380 5372 5365 5358 5353 5347 5342 5337 5332 5327 5321 5315 5311 5306 5302 5299 5297 5295 5292 5290 5288 5287 5287 5286 5286 5286 5286 5286 5286 5288 5288 5288
5765 5762 5757 5752 5748 5743 5738 5733 5727 5721 5713 5705 5696 5687 5676 5664 5656 5650 5644 5637 5634 5633 5626 5615 5605 5596 5586 5578 5569 5559 5549 5540 5530 5521 5512 5506 5500 5494 5488 5480 5472 5464 5456 5447 5439 5431 5423 5415 5407 5400 5393 5386 5379 5372 5365 5358 5350 5344 5338 5332 5327 5322 5317 5311 5305 5300 5295 5291 5288 5286 5284 5281 5278 5276 5275 5274 5271 5270 5270 5271 5271 5272 5271 5272 5272 5272
5762 5758 5754 5749 5745 5741 5734 5728 5721 5713 5706 5698 5690 5682 5674 5665 5654 5644 5637 5628 5622 5620 5617 5609 5599 5589 5579 5572 5564 5553 5543 5533 5523 5514 5507 5501 5495 5487 5478 5469 5460 5452 5443 5435 5427 5419 5410 5402 5394 5387 5380 5373 5365 5359 5352 5345 5338 5331 5326 5320 5315 5310 5305 5299 5293 5287 5283 5279 5276 5273 5270 5267 5265 5263 5262 5261 5258 5256 5256 5256 5257 5258 5257 5257 5258 5258
5760 5754 5750 5746 5742 5737 5731 5725 5718 5711 5704 5696 5688 5680 5674 5668 5660 5651 5643 5634 5622 5616 5612 5604 5594 5586 5576 5568 5558 5547 5537 5527 5517 5509 5503 5497 5489 5479 5470 5460 5451 5441 5432 5423 5414 5406 5397 5390 5381 5373 5366 5359 5351 5345 5338 5331 5325 5319 5314 5308 5303 5298 5294 5288 5282 5277 5273 5269 5265 5262 5259 5256 5253 5251 5249 5249 5248 5247 5245 5245 5246 5246 5246 5246 5247 5247
5760 5753 5748 5744 5739 5734 5729 5722 5716 5709 5702 5694 5687 5679 5671 5663 5657 5651 5646 5639 5628 5616 5607 5597 5588 5580 5571 5560 5551 5540 5530 5520 5512 5505 5499 5490 5480 5469 5459 5448 5438 5429 5421 5412 5403 5394 5385 5377 5368 5360 5351 5344 5337 5330 5324 5318 5312 5308 5303 5298 5293 5289 5283 5277 5272 5268 5264 5259 5255 5252 5250 5247 5243 5241 5239 5239 5239 5239 5237 5237 5237 5238 5238 5238 5239 5239
5758 5753 5748 5742 5738 5732 5727 5720 5714 5707 5700 5692 5685 5677 5670 5662 5655 5646 5636 5627 5619 5610 5604 5597 5585 5572 5562 5553 5544 5534 5523 5514 5508 5500 5491 5480 5469 5458 5447 5437 5427 5419 5410 5402 5394 5384 5374 5365 5356 5348 5340 5333 5326 5319 5313 5307 5302 5297 5294 5289 5285 5280 5274 5268 5264 5260 5256 5251 5248 5245 5242 5239 5236 5233 5232 5232 5232 5232 5231 5231 5231 5231 5232 5232 5233 5234
5757 5753 5747 5741 5736 5731 5725 5718 5711 5704 5697 5689 5681 5673 5666 5657 5648 5639 5628 5617 5608 5601 5597 5595 5584 5569 5557 5549 5538 5527 5516 5508 5501 5492 5481 5469 5458 5448 5438 5428 5418 5409 5400 5391 5381 5372 5362 5353 5344 5336 5329 5323 5316 5309 5304 5298 5293 5288 5284 5279 5275 5270 5265 5260 5256 5252 5248 5245 5241 5238 5235 5233 5231 5229 5228 5227 5226 5226 5226 5226 5226 5226 5227 5228 5229 5230
5754 5750 5745 5738 5733 5728 5723 5717 5709 5703 5696 5688 5681 5673 5664 5653 5642 5633 5626 5617 5607 5598 5587 5581 5577 5567 5554 5544 5534 5523 5514 5504 5493 5482 5472 5462 5453 5443 5432 5422 5411 5401 5391 5381 5371 5361 5352 5344 5336 5328 5320 5312 5306 5299 5294 5288 5284 5280 5275 5270 5266 5261 5257 5253 5249 5245 5242 5238 5235 5233 5231 5229 5227 5225 5224 5223 5222 5222 5222 5222 5223 5224 5225 5226 5227 5228
5751 5748 5744 5738 5732 5727 5722 5716 5708 5700 5692 5685 5678 5670 5662 5656 5647 5638 5630 5620 5608 5596 5583 5573 5570 5564 5551 5540 5531 5523 5513 5502 5489 5478 5469 5461 5451 5440 5428 5416 5405 5395 5385 5375 5365 5356 5347 5339 5330 5322 5314 5305 5298 5291 5286 5280 5276 5272 5267 5263 5258 5254 5250 5246 5242 5239 5236 5233 5231 5229 5227 5226 5224 5222 5221 5220 5220 5220 5220 5221 5221 5222 5224 5225 5225 5226
5748 5745 5741 5736 5731 5725 5718 5712 5703 5695 5688 5681 5674 5666 5658 5651 5644 5637 5630 5622 5610 5598 5587 5575 5566 5557 5547 5537 5531 5523 5513 5502 5490 5478 5468 5458 5445 5433 5422 5411 5400 5390 5380 5371 5362 5353 5344 5335 5326 5317 5309 5301 5293 5286 5280 5275 5270 5265 5261 5257 5253 5248 5244 5241 5238 5235 5233 5230 5228 5226 5224 5223 5221 5220 5219 5219 5219 5219 5220 5220 5221 5222 5222 5223 5224 5224
5747 5742 5738 5733 5727 5722 5715 5709 5702 5695 5689 5682 5674 5666 5657 5648 5639 5630 5621 5615 5608 5600 5591 5579 5568 5557 5547 5537 5531 5522 5512 5501 5491 5478 5465 5451 5438 5426 5416 5406 5395 5385 5376 5368 5359 5350 5341 5332 5323 5315 5307 5299 5291 5283 5276 5270 5265 5261 5256 5252 5249 5245 5241 5237 5235 5232 5230 5227 5225 5223 5222 5221 5220 5219 5219 5219 5219 5220 5220 5220 5221 5221 5221 5222 5222 5223
5746 5740 5736 5732 5729 5724 5718 5712 5706 5698 5690 5682 5673 5664 5654 5644 5634 5625 5615 5608 5602 5595 5585 5575 5568 5561 5551 5541 5531 5521 5511 5500 5488 5474 5458 5445 5434 5423 5412 5401 5391 5382 5373 5365 5357 5348 5339 5331 5323 5315 5307 5299 5291 5283 5275 5268 5262 5257 5253 5248 5245 5242 5239 5235 5233 5231 5228 5226 5224 5222 5221 5220 5220 5220 5220 5220 5220 5220 5220 5220 5220 5221 5221 5221 5222 5222
5745 5739 5733 5729 5724 5720 5716 5710 5704 5698 5688 5679 5669 5661 5652 5642 5633 5625 5617 5608 5599 5592 5582 5572 5566 5561 5553 5541 5531 5520 5509 5498 5484 5469 5454 5441 5429 5418 5407 5396 5386 5376 5368 5360 5352 5344 5336 5329 5321 5313 5304 5296 5289 5282 5275 5268 5262 5256 5251 5247 5243 5240 5237 5234 5232 5230 5228 5226 5224 5223 5222 5222 5221 5221 5221 5220 5220 5220 5220 5220 5220 5220 5221 5221 5222 5222
5744 5738 5731 5724 5717 5710 5705 5700 5694 5689 5683 5676 5668 5660 5651 5643 5635 5626 5616 5606 5597 5589 5580 5569 5560 5556 5551 5541 5530 5518 5504 5491 5478 5465 5452 5439 5426 5414 5403 5392 5380 5370 5362 5354 5348 5341 5334 5326 5318 5310 5302 5294 5287 5280 5274 5268 5262 5257 5252 5247 5243 5240 5237 5235 5233 5231 5229 5228 5226 5225 5224 5223 5223 5222 5221 5221 5221 5220 5220 5220 5220 5220 5220 5221 5221 5222
5743 5737 5730 5723 5716 5709 5703 5697 5691 5685 5680 5674 5667 5660 5651 5643 5634 5625 5616 5607 5596 5588 5583 5573 5559 5550 5545 5535 5523 5510 5498 5485 5472 5459 5447 5435 5424 5413 5403 5392 5380 5370 5361 5353 5347 5341 5333 5326 5318 5310 5302 5295 5287 5281 5274 5269 5263 5259 5254 5250 5246 5242 5240 5237 5235 5233 5232 5230 5229 5227 5226 5225 5224 5223 5222 5222 5222 5221 5221 5221 5220 5220 5220 5221 5221 5222
5742 5737 5731 5724 5717 5711 5704 5698 5692 5685 5679 5673 5666 5658 5649 5639 5631 5624 5615 5605 5596 5588 5584 5577 5564 5550 5539 5528 5515 5503 5491 5478 5465 5454 5443 5433 5423 5414 5404 5394 5383 5372 5363 5355 5348 5340 5333 5326 5318 5311 5303 5296 5289 5282 5276 5271 5266 5261 5257 5253 5250 5246 5243 5241 5238 5236 5234 5233 5231 5229 5228 5227 5225 5224 5224 5223 5222 5222 5221 5221 5221 5221 5221 5221 5222 5222
5740 5736 5731 5724 5717 5710 5704 5698 5692 5685 5679 5672 5664 5655 5647 5638 5630 5623 5615 5608 5600 5590 5578 5569 5560 5547 5534 5525 5515 5500 5485 5472 5462 5453 5445 5436 5425 5413 5401 5390 5379 5370 5362 5354 5347 5339 5332 5325 5317 5311 5304 5298 5291 5285 5279 5274 5269 5265 5260 5257 5253 5250 5247 5244 5241 5239 5237 5235 5233 5231 5230 5228 5227 5226 5225 5224 5223 5222 5222 5222 5221 5221 5221 5221 5222 5222
5738 5734 5729 5724 5717 5710 5704 5697 5691 5685 5678 5670 5661 5654 5647 5638 5628 5621 5615 5607 5598 5587 5575 5566 5557 5547 5535 5524 5511 5497 5484 5476 5469 5458 5446 5433 5420 5406 5395 5385 5375 5367 5359 5351 5344 5337 5330 5324 5317 5310 5304 5298 5293 5287 5282 5277 5272 5268 5263 5260 5256 5253 5250 5247 5244 5241 5239 5237 5235 5233 5231 5229 5228 5227 5225 5225 5224 5223 5222 5222 5222 5222 5222 5222 5222 5222
5736 5731 5726 5722 5716 5710 5703 5696 5689 5683 5676 5668 5660 5653 5647 5639 5630 5621 5613 5603 5594 5587 5578 5566 5555 5546 5536 5521 5507 5498 5489 5479 5468 5456 5441 5425 5412 5400 5391 5381 5373 5365 5357 5349 5342 5336 5330 5323 5317 5311 5305 5299 5294 5289 5284 5279 5274 5270 5266 5262 5258 5255 5252 5249 5246 5243 5241 5238 5236 5234 5232 5230 5228 5227 5226 5225 5224 5223 5223 5223 5222 5222 5222 5222 5222 5223
5734 5729 5724 5719 5714 5708 5702 5695 5689 5682 5675 5666 5658 5652 5646 5639 5631 5620 5609 5601 5594 5586 5575 5563 5551 5538 5526 5516 5509 5502 5490 5474 5458 5446 5434 5422 5410 5398 5387 5378 5370 5362 5354 5347 5341 5336 5330 5324 5318 5312 5306 5300 5295 5290 5285 5280 5276 5272 5268 5264 5260 5257 5254 5251 5248 5245 5242 5239 5237 5234 5232 5230 5228 5227 5226 5225 5224 5224 5223 5223 5223 5222 5222 5222 5223 5223
5732 5726 5721 5716 5711 5706 5700 5693 5686 5680 5672 5665 5659 5652 5644 5637 5629 5621 5612 5604 5593 5579 5567 5557 5546 5534 5525 5519 5511 5498 5482 5465 5450 5439 5429 5420 5411 5400 5389 5379 5369 5359 5351 5345 5339 5334 5329 5323 5317 5312 5306 5300 5295 5290 5285 5282 5278 5273 5269 5266 5262 5259 5255 5252 5249 5246 5242 5240 5237 5234 5232 5230 5228 5227 5226 5225 5224 5224 5224 5224 5223 5223 5223 5223 5223 5224
5729 5724 5719 5714 5709 5704 5698 5693 5686 5678 5671 5664 5657 5649 5641 5633 5626 5618 5609 5600 5590 5580 5571 5561 5551 5542 5533 5521 5507 5493 5478 5464 5452 5440 5429 5419 5410 5402 5393 5383 5372 5361 5353 5345 5338 5333 5328 5322 5317 5311 5306 5300 5295 5290 5286 5282 5278 5274 5270 5266 5263 5259 5256 5252 5249 5246 5243 5240 5237 5234 5232 5230 5228 5226 5225 5225 5224 5224 5224 5224 5224 5224 5224 5224 5224 5224
5727 5722 5716 5711 5706 5701 5696 5690 5683 5675 5669 5662 5653 5646 5639 5632 5626 5619 5610 5600 5593 5585 5577 5568 5559 5548 5535 5520 5507 5497 5487 5474 5461 5448 5436 5425 5415 5405 5395 5383 5371 5361 5354 5346 5338 5332 5326 5321 5316 5311 5306 5301 5296 5291 5286 5282 5277 5274 5270 5267 5263 5259 5256 5253 5250 5247 5244 5241 5238 5235 5232 5229 5227 5225 5224 5224 5224 5224 5224 5224 5225 5224 5224 5224 5224 5225
5725 5720 5714 5709 5703 5697 5691 5685 5678 5671 5665 5658 5651 5645 5639 5633 5628 5623 5615 5605 5594 5585 5576 5568 5558 5547 5535 5523 5512 5503 5495 5485 5472 5459 5448 5435 5421 5407 5393 5380 5368 5358 5350 5343 5336 5330 5325 5320 5315 5310 5305 5301 5296 5291 5286 5282 5278 5274 5270 5267 5263 5260 5256 5253 5250 5247 5244 5241 5238 5235 5232 5229 5226 5225 5224 5223 5223 5224 5225 5225 5225 5225 5225 5225 5225 5226
5723 5718 5712 5706 5700 5695 5688 5683 5678 5671 5664 5656 5649 5642 5635 5627 5620 5614 5607 5598 5589 5580 5570 5560 5551 5543 5535 5527 5518 5509 5501 5492 5482 5471 5458 5442 5426 5409 5393 5378 5367 5358 5350 5341 5334 5327 5322 5318 5314 5309 5305 5300 5295 5291 5286 5282 5278 5274 5270 5267 5263 5259 5256 5253 5250 5247 5244 5241 5238 5235 5232 5229 5226 5224 5223 5223 5223 5224 5225 5225 5226 5226 5226 5226 5226 5226
5721 5716 5710 5704 5698 5692 5686 5681 5676 5670 5662 5655 5648 5640 5632 5623 5614 5605 5599 5592 5583 5574 5564 5556 5548 5540 5533 5525 5518 5509 5501 5492 5480 5467 5453 5437 5423 5408 5393 5380 5369 5359 5349 5341 5334 5327 5321 5317 5313 5309 5304 5299 5294 5290 5285 5282 5278 5274 5270 5267 5263 5260 5256 5253 5250 5247 5244 5242 5238 5235 5232 5229 5227 5225 5224 5223 5224 5225 5225 5226 5227 5227 5227 5227 5227 5228
5720 5714 5709 5703 5696 5690 5684 5677 5671 5664 5658 5652 5645 5639 5633 5625 5616 5607 5599 5591 5582 5573 5565 5557 5549 5539 5529 5520 5509 5499 5490 5482 5470 5457 5442 5428 5414 5401 5391 5382 5373 5362 5351 5341 5333 5326 5321 5316 5312 5307 5303 5298 5294 5289 5285 5281 5277 5274 5270 5266 5263 5260 5257 5254 5251 5248 5245 5242 5239 5236 5233 5230 5228 5226 5225 5225 5225 5226 5226 5227 5228 5228 5228 5229 5229 5230
5718 5712 5707 5701 5695 5688 5683 5677 5671 5664 5657 5651 5644 5637 5630 5624 5617 5609 5601 5594 5586 5576 5566 5556 5546 5537 5527 5516 5505 5493 5480 5469 5458 5447 5436 5424 5412 5401 5390 5381 5371 5361 5351 5343 5334 5326 5320 5315 5310 5306 5302 5298 5294 5289 5284 5280 5276 5273 5269 5266 5262 5259 5256 5254 5251 5248 5246 5243 5240 5237 5235 5232 5230 5228 5227 5227 5227 5227 5228 5229 5229 5230 5230 5231 5232 5232
5717 5711 5705 5699 5694 5687 5681 5675 5670 5664 5656 5650 5643 5636 5629 5623 5617 5608 5599 5591 5583 5574 5564 5554 5544 5534 5524 5514 5504 5493 5480 5467 5456 5446 5437 5427 5417 5407 5395 5384 5372 5361 5352 5344 5335 5327 5320 5314 5310 5306 5301 5297 5292 5287 5283 5278 5275 5271 5268 5265 5261 5258 5256 5253 5251 5248 5246 5244 5241 5239 5236 5234 5232 5231 5230 5230 5230 5230 5230 5231 5232 5232 5233 5234 5234 5235
5715 5709 5703 5697 5691 5686 5680 5674 5668 5663 5656 5649 5642 5636 5629 5621 5613 5606 5597 5588 5580 5572 5563 5553 5544 5535 5525 5515 5505 5495 5483 5472 5461 5451 5441 5430 5419 5409 5399 5388 5377 5366 5356 5346 5337 5328 5321 5315 5310 5305 5301 5296 5292 5287 5282 5277 5273 5270 5266 5263 5260 5257 5255 5252 5250 5248 5246 5244 5242 5240 5238 5236 5235 5234 5233 5232 5233 5233 5233 5234 5234 5235 5236 5236 5237 5237
5712 5706 5700 5694 5689 5683 5677 5671 5664 5659 5653 5647 5640 5634 5627 5619 5611 5605 5597 5588 5579 5571 5563 5554 5545 5536 5528 5519 5509 5499 5488 5477 5466 5456 5445 5434 5423 5412 5401 5390 5380 5370 5360 5349 5339 5330 5322 5315 5310 5306 5302 5297 5292 5287 5281 5276 5272 5269 5265 5262 5259 5256 5254 5251 5250 5248 5246 5244 5243 5241 5240 5238 5237 5236 5236 5235 5235 5236 5236 5237 5237 5238 5239 5239 5239 5240
5709 5703 5697 5692 5686 5680 5674 5668 5661 5655 5650 5644 5638 5631 5625 5618 5611 5604 5596 5589 5580 5572 5564 5555 5546 5537 5528 5520 5510 5500 5490 5479 5470 5460 5450 5439 5428 5416 5405 5394 5384 5373 5362 5352 5342 5332 5324 5316 5310 5306 5301 5296 5292 5287 5282 5277 5272 5268 5265 5261 5258 5255 5253 5251 5249 5248 5246 5245 5243 5242 5241 5240 5239 5238 5238 5238 5238 5239 5239 5240 5240 5241 5241 5242 5242 5242
5708 5703 5697 5691 5685 5679 5673 5668 5662 5656 5651 5645 5638 5631 5624 5618 5611 5604 5596 5588 5580 5572 5564 5556 5547 5538 5529 5520 5510 5500 5491 5482 5472 5461 5451 5440 5429 5418 5408 5397 5386 5375 5364 5354 5344 5335 5325 5318 5311 5305 5300 5296 5291 5287 5282 5277 5273 5268 5265 5261 5258 5255 5252 5250 5249 5247 5246 5245 5244 5243 5242 5241 5241 5241 5240 5241 5241 5242 5242 5243 5243 5244 5244 5244 5244 5244
5706 5701 5696 5690 5685 5680 5674 5667 5661 5655 5649 5642 5636 5630 5623 5617 5610 5603 5595 5587 5579 5572 5564 5556 5547 5539 5530 5521 5511 5501 5492 5483 5473 5463 5452 5441 5431 5421 5410 5399 5388 5377 5367 5357 5347 5337 5328 5319 5312 5306 5301 5296 5292 5287 5283 5278 5274 5270 5266 5262 5259 5256 5253 5250 5248 5247 5246 5246 5245 5244 5243 5243 5243 5243 5243 5243 5244 5244 5245 5245 5246 5246 5246 5246 5246 5246
5704 5699 5694 5688 5682 5677 5672 5666 5660 5653 5647 5640 5634 5627 5621 5614 5607 5600 5593 5586 5579 5571 5563 5554 5546 5538 5529 5520 5510 5501 5493 5485 5475 5465 5454 5444 5435 5424 5413 5402 5391 5380 5369 5359 5349 5339 5330 5322 5314 5308 5302 5297 5293 5289 5284 5279 5275 5271 5268 5264 5260 5256 5253 5251 5249 5248 5247 5246 5246 5245 5245 5245 5245 5245 5246 5246 5247 5247 5247 5248 5248 5248 5248 5248 5248 5248
5702 5697 5692 5687 5680 5675 5670 5665 5660 5653 5646 5640 5633 5626 5619 5613 5605 5598 5591 5584 5577 5569 5561 5553 5545 5537 5529 5520 5511 5503 5494 5486 5476 5466 5457 5447 5437 5427 5416 5406 5395 5384 5373 5362 5351 5341 5332 5324 5316 5309 5303 5299 5294 5290 5286 5281 5277 5273 5269 5265 5261 5257 5254 5251 5250 5249 5248 5247 5247 5247 5246 5246 5247 5248 5248 5248 5249 5249 5250 5250 5250 5250 5250 5250 5249 5249
5699 5694 5689 5684 5679 5673 5668 5663 5658 5653 5646 5639 5633 5626 5619 5612 5604 5597 5590 5583 5575 5568 5560 5552 5544 5536 5529 5521 5513 5505 5496 5486 5476 5467 5458 5449 5440 5429 5419 5408 5398 5387 5377 5366 5355 5344 5334 5325 5317 5310 5304 5300 5296 5292 5287 5283 5279 5275 5271 5267 5263 5259 5255 5253 5251 5250 5249 5249 5248 5248 5248 5248 5249 5250 5250 5251 5251 5251 5251 5251 5251 5251 5251 5251 5251 5250
5697 5692 5687 5682 5677 5671 5666 5660 5655 5650 5644 5638 5631 5624 5617 5610 5603 5596 5589 5582 5575 5568 5561 5553 5545 5536 5528 5521 5514 5506 5496 5487 5478 5469 5459 5450 5441 5432 5422 5411 5401 5391 5381 5370 5359 5347 5337 5328 5320 5312 5306 5301 5297 5293 5289 5285 5281 5278 5274 5270 5266 5262 5258 5255 5253 5252 5251 5251 5250 5250 5250 5251 5251 5252 5252 5253 5253 5253 5253 5253 5253 5253 5252 5252 5252 5251
5695 5690 5685 5679 5674 5669 5664 5658 5653 5647 5642 5636 5629 5622 5615 5608 5601 5594 5587 5580 5573 5567 5560 5553 5545 5537 5529 5522 5514 5505 5496 5487 5478 5469 5460 5451 5441 5432 5423 5414 5404 5394 5384 5374 5363 5352 5342 5333 5324 5316 5309 5304 5299 5295 5291 5287 5284 5280 5277 5274 5270 5266 5262 5259 5257 5255 5254 5253 5253 5253 5253 5253 5254 5254 5254 5255 5255 5255 5255 5255 5255 5254 5254 5253 5253 5253